Regional Weather Roundup
Issued by NWS Grand Forks, ND

Home | Current Version | Previous Version | Graphics & Text | Print | Product List | Glossary On
Versions: 1 2 3 4 5 6 7 8 9 10 11 12 13 14 15 16 17 18 19 20 21 22 23 24 25 26 27 28 29 30 31 32 33 34 35 36 37 38 39 40 41 42 43 44 45 46 47 48 49 50
000
ASUS43 KFGF 200010
RWRFGF
PRAIRIE TO PINES  WEATHER ROUNDUP
NATIONAL WEATHER SERVICE EASTERN NORTH DAKOTA/GRAND FORKS ND
600 PM CST FRI JAN 19 2018

 **SATELLITE DATA USED TO AUGMENT SKY COVER AT AUTOMATED STATIONS**
 *****  WEATHER ACROSS EASTERN NORTH DAKOTA  *****

CITY           SKY/WX    TMP DP  RH WIND       PRES   REMARKS
GRAND FORKS    MOCLDY    35  32  88 W6        29.54S
6HR MIN TEMP:  35; 6HR MAX TEMP:  40;

GRAND FRKS AFB MOCLDY    35  31  85 NW7       29.54S
DEVILS LAKE    FAIR      32  28  85 W9        29.57R WCI  24
6HR MIN TEMP:  32; 6HR MAX TEMP:  39;

FARGO          FAIR      34  30  85 W7        29.59R
WAHPETON ARPT  FAIR      32  30  93 W9        29.62R WCI  24
$$

 ***** WEATHER ACROSS CENTRAL AND WESTERN NORTH DAKOTA  *****

CITY           SKY/WX    TMP DP  RH WIND       PRES   REMARKS
BISMARCK       FAIR      39  31  72 W5        29.65R
6HR MIN TEMP:  39; 6HR MAX TEMP:  45;

MINOT          FAIR      37  28  70 W9        29.59R
6HR MIN TEMP:  37; 6HR MAX TEMP:  42;

JAMESTOWN      FAIR      37  31  78 W9        29.60R
6HR MIN TEMP:  37; 6HR MAX TEMP:  42;

MINOT AFB      FAIR      35  28  77 W12       29.58R
GARRISON         N/A     35  27  72 W10       29.62R
WILLISTON      FAIR      35  27  72 W12       29.65R
6HR MIN TEMP:  35; 6HR MAX TEMP:  39;

DICKINSON      FAIR      35  32  88 W12       29.64R
6HR MIN TEMP:  35; 6HR MAX TEMP:  40;

HETTINGER      CLOUDY    35  31  85 NW9       29.70R
6HR MIN TEMP:  35; 6HR MAX TEMP:  41;

$$

 *****  OTHER AIRPORT OBSERVATIONS IN OUR AREA  *****

CITY           SKY/WX    TMP DP  RH WIND       PRES   REMARKS
WALHALLA       FAIR      37  34  87 W9        29.51S
GRAFTON AIRPOR FAIR      32  32 100 SW8       29.55S WCI  25
VALLEY CITY AR FAIR      36  36 100 W12       29.61S
CANDO          FAIR      34  32  93 W14       29.57R WCI  24
CAVALIER APRT    N/A     37  32  81 W12       29.51S
GWINNER          N/A     36  30  80 W7        29.62R
SHEYENNE NWR     N/A     39  31  74 NW6       29.95S
ROLLA          FAIR      36  28  75 W15       29.53R
 ***** THE ABOVE OBSERVATIONS ARE NON NWS ARE NOT QUALITY
       CONTROLLED AND MAY MIS-REPORT RAIN FOR SNOW...
$$

  *****  WEATHER ACROSS NORTHERN MINNESOTA  *****

CITY           SKY/WX    TMP DP  RH WIND       PRES   REMARKS
FLAG ISLAND    CLOUDY    36  30  80 W21G26    29.45R
WARROAD        CLOUDY    36  32  87 W12       29.49R
ROSEAU         FAIR      36  30  80 W8        29.50R
HALLOCK        FAIR      30  28  93 CALM      29.52S
THF RVR FALLS  FAIR      36  31  82 W10       29.53S
6HR MIN TEMP:  34; 6HR MAX TEMP:  39; 6HR PCP: TRACE;

BAUDETTE       FAIR      36  30  79 W12       29.45R
6HR MIN TEMP:  36; 6HR MAX TEMP:  45; 6HR PCP:  0.01;

WASKISH        FAIR      34  30  86 W6        29.48R
CROOKSTON      FAIR      34  30  86 W10       29.55S
STEPHEN NDAWN    N/A     34  28  80 W5          N/A
GREENBUSH NDAW   N/A     30  28  93 W6          N/A  WCI  24
$$
  *****  WEATHER ACROSS CENTRAL AND WEST MINNESOTA  *****

CITY           SKY/WX    TMP DP  RH WIND       PRES   REMARKS
FOSSTON        FAIR      34  28  80 W6        29.54R
BEMIDJI        FAIR      36  30  79 W10       29.50R
6HR MIN TEMP:  36; 6HR MAX TEMP:  42;

PARK RAPIDS    FAIR      35  29  78 W9        29.52R
6HR MIN TEMP:  33; 6HR MAX TEMP:  44;

ELBOW LAKE     FAIR      33  31  93 CALM      29.60R
6HR MIN TEMP:  33; 6HR MAX TEMP:  38;

WADENA         FAIR      34  28  80 W7        29.56R
DETROIT LAKES  FAIR      36  32  87 NW10      29.58R
MOORHEAD       FAIR      34  30  86 W7        29.60R
FERGUS FALLS   FAIR      32  30  93 W8        29.60R WCI  25
MORRIS MN      FAIR      36  30  80 NW8       29.60R
STAPLES        FAIR      34  28  80 W9        29.55R
$$
  *****  WEATHER ELSEWHERE ACROSS MINNESOTA  *****

CITY           SKY/WX    TMP DP  RH WIND       PRES   REMARKS
DULUTH         FAIR      37  28  70 W13       29.44R
6HR MIN TEMP:  36; 6HR MAX TEMP:  40;

INTRNTL FALLS  FAIR      37  29  72 W13G21    29.42R
6HR MIN TEMP:  37; 6HR MAX TEMP:  43; 6HR PCP: TRACE;

ELY            FAIR      36  28  75 W8        29.40R
CLOQUET        FAIR      37  27  65 SW8       29.47R
WHEATON        FAIR      37  30  75 NW6       29.64R
BRAINERD       FAIR      42  28  57 W9        29.53R
6HR MIN TEMP:  35; 6HR MAX TEMP:  47;

HIBBING        FAIR      40  28  62 W10       29.44R
6HR MIN TEMP:  34; 6HR MAX TEMP:  40;

ALEXANDRIA     FAIR      36  30  79 NW9       29.58R
6HR MIN TEMP:  36; 6HR MAX TEMP:  43;

SAINT CLOUD    FAIR      37  29  72 W6        29.55R
6HR MIN TEMP:  36; 6HR MAX TEMP:  46;

MINNEAPOLIS    MOCLDY    40  32  73 W6        29.58R
6HR MIN TEMP:  38; 6HR MAX TEMP:  44;

$$

  *****  WEATHER ACROSS SOUTH DAKOTA  *****

CITY           SKY/WX    TMP DP  RH WIND       PRES   REMARKS
SIOUX FALLS    CLOUDY    37  32  82 NW8       29.65R
6HR MIN TEMP:  37; 6HR MAX TEMP:  52;

BROOKINGS      FAIR      38  30  73 W3        29.64R
WATERTOWN      FAIR      36  29  75 NW5       29.64R
6HR MIN TEMP:  36; 6HR MAX TEMP:  48; 6HR PCP: TRACE;

HURON          FAIR      39  31  72 NW10      29.67R
6HR MIN TEMP:  35; 6HR MAX TEMP:  47;

SISSETON         N/A     39  29  67 W12       29.62R
ABERDEEN       FAIR      39  29  67 NW6       29.66R
6HR MIN TEMP:  38; 6HR MAX TEMP:  52;

MITCHELL       FAIR      37  32  82 SW6       29.68R
PIERRE         FAIR      38  30  73 W8        29.70R
6HR MIN TEMP:  37; 6HR MAX TEMP:  49;

MOBRIDGE       CLOUDY    42  31  64 NW6       29.66R
RAPID CITY     FAIR      34  29  82 N7        29.71R
6HR MIN TEMP:  33; 6HR MAX TEMP:  46;

$$

  *****  SOME WEATHER IN NEARBY STATES *****

CITY           SKY/WX    TMP DP  RH WIND       PRES   REMARKS
GLASGOW MT     FAIR      30  26  85 W7        29.67R WCI  23
6HR MIN TEMP:  29; 6HR MAX TEMP:  38;

GREAT FALLS MT FAIR      35  20  54 SW18      29.73R WCI  24
6HR MIN TEMP:  35; 6HR MAX TEMP:  42;

CHEYENNE WY    FAIR      55  17  22 W24G31    29.75R
6HR MIN TEMP:  49; 6HR MAX TEMP:  62;

SCOTTSBLUFF NE FAIR      37  31  78 SE3       29.68R
6HR MIN TEMP:  36; 6HR MAX TEMP:  44;

OMAHA NE       CLOUDY    42  29  59 S12       29.69R
6HR MIN TEMP:  41; 6HR MAX TEMP:  46;

DES MOINES IA  CLOUDY    44  27  51 S17G24    29.67F
6HR MIN TEMP:  42; 6HR MAX TEMP:  47;

DAVENPORT IA   FAIR      43  26  51 S16       29.73S
6HR MIN TEMP:  39; 6HR MAX TEMP:  44;

CHICAGO IL     MOCLDY    39  28  64 SW18G29   29.73F
6HR MIN TEMP:  36; 6HR MAX TEMP:  40;

EAU CLAIRE WI  FAIR      36  28  73 SW8       29.55R
6HR MIN TEMP:  35; 6HR MAX TEMP:  42;

LA CROSSE WI   FAIR      39  30  70 S10       29.59R
6HR MIN TEMP:  35; 6HR MAX TEMP:  42;

$$

  *****  SOME NATIONAL WEATHER *****

CITY           SKY/WX    TMP DP  RH WIND       PRES   REMARKS
LA GUARDIA NY  MOCLDY    38  17  42 SW9       29.98S
6HR MIN TEMP:  35; 6HR MAX TEMP:  39;

RALEIGH NC     FAIR      42  21  43 SW3       30.15R
6HR MIN TEMP:  40; 6HR MAX TEMP:  49;

ATLANTA GA     FAIR      44  14  29 SW3       30.21F
6HR MIN TEMP:  44; 6HR MAX TEMP:  55;

NEW ORLEANS LA MOCLDY    52  36  54 SE10      30.25F
6HR MIN TEMP:  51; 6HR MAX TEMP:  59;

OKLAHOMA CITY  MOCLDY    54  31  41 S16       29.87F
6HR MIN TEMP:  49; 6HR MAX TEMP:  60;

ALBUQUERQUE NM MOCLDY    54  14  20 S5        29.99F
6HR MIN TEMP:  43; 6HR MAX TEMP:  56;

SALT LAKE CITY LGT SNOW  37  34  89 NW21      29.88R VSB 3/4
6HR MIN TEMP:  38; 6HR MAX TEMP:  58; 6HR PCP: TRACE;

LOS ANGELES CA CLOUDY


USA.gov is the U.S. government's official web portal to all federal, state and local government web resources and services.